| time (UTC) | temp C | wind direction | speed KPH | gust KPH | rain 1hr cm | rain 24hr cm | rain mn cm | humidity % | barometer mb |
| 20260505051507 | 6 | 201 | 17.7 | 35.4 | 0.00 | 0.58 | 0.00 | 83 | 1006.5 |
| 20260505041609 | 6 | 228 | 22.5 | 35.4 | 0.00 | 0.58 | 0.00 | 82 | 1005.7 |
| 20260505040053 | 6 | 176 | 20.9 | 37.0 | 0.00 | 0.58 | 0.00 | 83 | 1005.5 |
| 20260505034550 | 6 | 205 | 19.3 | 33.8 | 0.00 | 0.58 | 0.00 | 82 | 1005.2 |
| 20260505033048 | 7 | 183 | 27.4 | 43.5 | 0.00 | 0.58 | 0.00 | 82 | 1005.1 |
| 20260505031545 | 6 | 197 | 24.1 | 38.6 | 0.00 | 0.58 | 0.00 | 82 | 1004.9 |
| 20260505030055 | 6 | 206 | 19.3 | 40.2 | 0.00 | 0.58 | 0.00 | 82 | 1004.7 |
| 20260505024539 | 6 | 231 | 22.5 | 35.4 | 0.00 | 0.58 | 0.58 | 82 | 1004.4 |
| 20260505023039 | 6 | 203 | 27.4 | 40.2 | 0.00 | 0.58 | 0.58 | 81 | 1004.1 |
| 20260505021549 | 6 | 216 | 24.1 | 41.8 | 0.00 | 0.58 | 0.58 | 82 | 1004.2 |
| 20260505020049 | 7 | 220 | 22.5 | 35.4 | 0.00 | 0.58 | 0.58 | 82 | 1004.0 |
| 20260505014536 | 7 | 214 | 22.5 | 43.5 | 0.00 | 0.58 | 0.58 | 83 | 1003.8 |
| 20260505013034 | 7 | 207 | 25.7 | 46.7 | 0.00 | 0.58 | 0.58 | 84 | 1003.4 |
| 20260505011535 | 7 | 226 | 25.7 | 45.1 | 0.00 | 0.58 | 0.58 | 85 | 1003.4 |
| 20260505010049 | 7 | 213 | 24.1 | 41.8 | 0.00 | 0.58 | 0.58 | 85 | 1003.3 |
| 20260505004532 | 7 | 184 | 27.4 | 46.7 | 0.00 | 0.58 | 0.58 | 85 | 1003.3 |
| 20260505003031 | 7 | 198 | 20.9 | 46.7 | 0.00 | 0.58 | 0.58 | 86 | 1003.2 |
| 20260505001530 | 7 | 177 | 25.7 | 45.1 | 0.00 | 0.58 | 0.58 | 87 | 1002.9 |
| 20260505000031 | 7 | 203 | 27.4 | 35.4 | 0.00 | 0.58 | 0.58 | 86 | 1002.8 |
| 20260504234524 | 7 | 222 | 25.7 | 48.3 | 0.00 | 0.64 | 0.58 | 82 | 1002.6 |
| 20260504233025 | 8 | 197 | 24.1 | 41.8 | 0.00 | 0.64 | 0.58 | 81 | 1002.4 |
| 20260504231521 | 8 | 185 | 27.4 | 48.3 | 0.00 | 0.64 | 0.58 | 80 | 1001.9 |
| 20260504230022 | 7 | 221 | 19.3 | 35.4 | 0.00 | 0.64 | 0.58 | 81 | 1001.9 |
| 20260504224631 | 8 | 239 | 20.9 | 38.6 | 0.00 | 0.81 | 0.58 | 80 | 1001.8 |
| 20260504223021 | 8 | 229 | 24.1 | 35.4 | 0.00 | 0.81 | 0.58 | 80 | 1001.6 |
| 20260504221517 | 8 | 195 | 20.9 | 37.0 | 0.00 | 0.81 | 0.58 | 79 | 1001.5 |
| 20260504220016 | 8 | 251 | 22.5 | 38.6 | 0.00 | 0.81 | 0.58 | 79 | 1001.6 |
| 20260504214523 | 8 | 168 | 24.1 | 37.0 | 0.00 | 0.94 | 0.58 | 78 | 1001.4 |
| 20260504213010 | 7 | 220 | 16.1 | 29.0 | 0.00 | 0.94 | 0.58 | 79 | 1001.3 |
| 20260504211509 | 7 | 230 | 17.7 | 32.2 | 0.00 | 0.94 | 0.58 | 79 | 1001.5 |
| 20260504210012 | 6 | 214 | 19.3 | 29.0 | 0.00 | 0.94 | 0.58 | 80 | 1001.2 |
| 20260504204510 | 6 | 238 | 14.5 | 32.2 | 0.00 | 1.04 | 0.58 | 79 | 1000.9 |
| 20260504203005 | 6 | 228 | 19.3 | 32.2 | 0.00 | 1.04 | 0.58 | 79 | 1000.5 |
| 20260504201505 | 6 | 201 | 17.7 | 35.4 | 0.00 | 1.04 | 0.58 | 80 | 1000.4 |
| 20260504200004 | 7 | 205 | 20.9 | 33.8 | 0.00 | 1.04 | 0.58 | 79 | 1000.3 |
| 20260504194559 | 7 | 230 | 25.7 | 43.5 | 0.00 | 1.17 | 0.58 | 78 | 1000.0 |
| 20260504193055 | 7 | 228 | 24.1 | 40.2 | 0.00 | 1.17 | 0.58 | 80 | 999.7 |
| 20260504191607 | 7 | 230 | 24.1 | 35.4 | 0.00 | 1.17 | 0.58 | 80 | 999.4 |
| 20260504190049 | 6 | 233 | 22.5 | 32.2 | 0.00 | 1.17 | 0.58 | 82 | 999.4 |
| 20260504184546 | 5 | 230 | 19.3 | 37.0 | 0.00 | 1.17 | 0.58 | 83 | 999.3 |
| 20260504183046 | 5 | 234 | 19.3 | 27.4 | 0.00 | 1.17 | 0.58 | 83 | 999.3 |
| 20260504181544 | 5 | 207 | 16.1 | 29.0 | 0.00 | 1.17 | 0.58 | 84 | 999.1 |
| 20260504180041 | 4 | 226 | 17.7 | 29.0 | 0.00 | 1.17 | 0.58 | 84 | 999.1 |
| 20260504174539 | 4 | 231 | 19.3 | 29.0 | 0.00 | 1.17 | 0.58 | 84 | 998.8 |
| 20260504173037 | 4 | 234 | 22.5 | 32.2 | 0.00 | 1.17 | 0.58 | 84 | 998.7 |
| 20260504171534 | 4 | 230 | 20.9 | 33.8 | 0.00 | 1.17 | 0.58 | 84 | 998.2 |
| 20260504120107 | 1 | 264 | 32.2 | 45.1 | 0.05 | 1.07 | 0.48 | 85 | 990.3 |
| 20260504081557 | 2 | 262 | 20.9 | 32.2 | 0.13 | 0.97 | 0.38 | 85 | 977.7 |